sat.trackr.live / text

‹ back to catalog

STARLINK-4462

NORAD 53781 · 2022-111J

PAYLOAD ACTIVE UNKNOWN

§ Identity

Operator
Country
US
Launch date
2022-09-11
Launch site
AFETR
Launch vehicle
Mass (kg)
RCS (m²)

Purposes: comms

External: N2YO · Heavens-Above · Gunter

§ Orbital elements

Epoch: 2026-05-25T02:43:58.813824Z

Period
95.44 min
Inclination
53.2126°
Eccentricity
0.0002330
Mean motion
15.08836060 rev/d
Perigee alt
538.1 km
Apogee alt
541.4 km
Semi-major
6,917.9 km
B*
5.2877e-5
RAAN
291.0358°
Arg perigee
79.5380°
Mean anomaly
280.5874°
Rev number
20,523

§ Raw data

STARLINK-44621 53781U 22111J   26145.11387516  .00000553  00000+0  52877-4 0  99962 53781  53.2126 291.0358 0002330  79.5380 280.5874 15.08836060205236

JSON: /api/v1/satellites/53781 · /tle

For live sub-satellite position, see the globe view (requires WebGL).

§ Visibility from observer

Set your observer location to see the next 7 days of passes ≥ 10°. The values pass through the URL so the page stays shareable.

No JS? Fill the form by hand. The geolocation button needs JavaScript.